Jackson, KY

7:37 AM EST on December 12, 2017 (GMT -0500)
Carroll

Weather History for KJKL - February, 2012

Change the Weather History Date:

Sunday, February 12, 2012

  Actual Average Record
Temperature  
Mean Temperature 23 °F 38 °F  
Max Temperature 34 °F 47 °F 72 °F (2017)
Min Temperature 12 °F 29 °F -4 °F (1981)
Degree Days  
Heating Degree Days 42 27  
Month to date heating degree days 324 337  
Since 1 July heating degree days 2475 2903  
Cooling Degree Days 0 0  
Month to date cooling degree days 0 0  
Year to date cooling degree days 0 0  
Moisture  
Dew Point 11 °F    
Average Humidity 62    
Maximum Humidity 76    
Minimum Humidity 47    
Precipitation  
Precipitation T in 0.13 in 0.74 in (1999)
Month to date precipitation 1.14 1.59  
Year to date precipitation 6.00 5.20  
Snow  
Snow T in 0.30 in 12.00 in (1985)
Month to date snowfall 2.4 3.4  
Since 1 July snowfall 6.6 16.0  
Snow Depth 1.00 in    
Sea Level Pressure  
Sea Level Pressure 30.35 in    
Wind  
Wind Speed 5 mph (WSW)    
Max Wind Speed 12 mph    
Max Gust Speed 18 mph    
Visibility 10 miles    
Events      
T = Trace of Precipitation, MM = Missing Value Source: NWS Daily Summary

Daily Weather History Graph

Daily Weather History Graph

Search for Another Location

Airport or City:

Trip Planner

Search our weather history database for the weather conditions in past years. The results will help you decide how hot, cold, wet, or windy it might be!

Date:

Astronomy

Feb. 12, 2012 Rise Set
Actual Time 7:26 AM EST 6:08 PM EST
Civil Twilight 6:59 AM EST 6:35 PM EST
Nautical Twilight 6:28 AM EST 7:06 PM EST
Astronomical Twilight 5:58 AM EST 7:37 PM EST
Moon 11:57 PM EST 9:52 AM EST
Length of Visible Light 11h 36m
Length of Day
10h 42m
Waning Gibbous, 72% of the Moon is Illuminated
Feb 12
Waning Gibbous
Feb 14
Last Quarter
Feb 21
New
Feb 29
First Quarter
Mar 8
Full

Hourly Weather History & Observations

Time (EST) Temp. Windchill Dew Point Humidity Pressure Visibility Wind Dir Wind Speed Gust Speed Precip Events Conditions
12:53 AM 17.1 °F 10.0 °F 10.9 °F 77% 30.35 in 10.0 mi WSW 4.6 mph - 0.00 in   Overcast
1:53 AM 17.1 °F 10.0 °F 8.1 °F 68% 30.35 in 10.0 mi Variable 4.6 mph - N/A   Overcast
2:53 AM 17.1 °F 8.7 °F 6.1 °F 62% 30.35 in 10.0 mi Variable 5.8 mph - N/A   Mostly Cloudy
3:53 AM 15.1 °F 6.4 °F 6.1 °F 68% 30.37 in 10.0 mi Variable 5.8 mph - N/A   Clear
4:53 AM 12.9 °F - 6.1 °F 74% 30.37 in 10.0 mi Calm Calm - N/A   Clear
5:53 AM 12.9 °F 5.2 °F 6.1 °F 74% 30.37 in 10.0 mi SW 4.6 mph - N/A   Clear
6:53 AM 12.9 °F 5.2 °F 7.0 °F 77% 30.37 in 10.0 mi WSW 4.6 mph - N/A   Clear
7:53 AM 12.9 °F 6.9 °F 7.0 °F 77% 30.39 in 10.0 mi Variable 3.5 mph - N/A   Clear
8:53 AM 16.0 °F 7.4 °F 8.1 °F 71% 30.41 in 10.0 mi WSW 5.8 mph - N/A   Clear
9:53 AM 19.0 °F 10.0 °F 7.0 °F 59% 30.41 in 10.0 mi WSW 6.9 mph - N/A   Clear
10:53 AM 21.9 °F 14.5 °F 9.0 °F 58% 30.40 in 10.0 mi Variable 5.8 mph - N/A   Clear
11:53 AM 25.0 °F - 9.0 °F 51% 30.38 in 10.0 mi Calm Calm - N/A   Clear
12:53 PM 28.0 °F 24.2 °F 12.0 °F 51% 30.35 in 10.0 mi Variable 3.5 mph - N/A   Clear
1:53 PM 30.9 °F 24.3 °F 15.1 °F 52% 30.32 in 10.0 mi WSW 6.9 mph - N/A   Clear
2:53 PM 33.1 °F 26.9 °F 16.0 °F 50% 30.31 in 10.0 mi West 6.9 mph - N/A   Clear
3:53 PM 33.1 °F 26.1 °F 15.1 °F 48% 30.31 in 10.0 mi WSW 8.1 mph 17.3 mph N/A   Clear
4:53 PM 33.1 °F 26.1 °F 15.1 °F 48% 30.32 in 10.0 mi WSW 8.1 mph - N/A   Clear
5:53 PM 30.0 °F 23.2 °F 15.1 °F 54% 30.33 in 10.0 mi West 6.9 mph - N/A   Clear
6:53 PM 28.9 °F 21.9 °F 15.1 °F 56% 30.34 in 10.0 mi Variable 6.9 mph - N/A   Clear
7:53 PM 28.0 °F 21.7 °F 15.1 °F 58% 30.35 in 10.0 mi WSW 5.8 mph - N/A   Clear
8:53 PM 27.0 °F 23.0 °F 15.1 °F 61% 30.34 in 10.0 mi SW 3.5 mph - N/A   Clear
9:53 PM 27.0 °F 21.6 °F 16.0 °F 63% 30.34 in 10.0 mi SW 4.6 mph - N/A   Clear
10:53 PM 26.1 °F 19.4 °F 15.1 °F 63% 30.34 in 10.0 mi WSW 5.8 mph - N/A   Clear
11:53 PM 25.0 °F 19.3 °F 15.1 °F 66% 30.33 in 10.0 mi WSW 4.6 mph - N/A   Clear